Location: St. Louis
(38.6270°N, 90.1994°W)
Time: 10:33:56

ISS - Pass Details

Date: 12 February 2014
Orbit: 399 x 408 km, 51.6° (Epoch: 26 October)

Event Time Altitude Azimuth Distance (km) Brightness Sun altitude
Rises 18:36:50 0° 318° (NW) 2,310 1.0 -12.6°
Reaches altitude 10° 18:40:01 10° 352° (N) 1,454 -0.5 -13.2°
Maximum altitude 18:41:19 12° 16° (NNE) 1,349 -0.9 -13.4°
Enters shadow 18:41:55 11° 27° (NNE) 1,374 -1.0 -13.5°
